Location: Morlupo
(42.1333°N, 12.5000°E)
Time: 17:05:35
(UTC+00:00)

Cosmos 2084 Rocket - Pass Details

Date: 18 September 2020
Orbit: 546 x 635 km, 62.8° (Epoch: 20 October)

Event Time Altitude Azimuth Distance (km) Brightness Sun altitude
Rises 17:32:01 0° 329° (NNW) 2,853 7.6 -4.2°
Reaches altitude 10° 17:34:22 10° 336° (NNW) 1,962 6.6 -4.6°
Maximum altitude 17:38:36 41° 47° (NE) 904 4.1 -5.4°
Drops below altitude 10° 17:42:52 10° 118° (ESE) 1,995 5.6 -6.2°
Enters shadow 17:43:56 - 122° (ESE) 2,391 6.0 -6.4°
